星链-30387 (STARLINK-30387 )

导读

STARLINK-30387是美国SpaceX星链互联网星座的一员,于2023年9月4日发射升空。它属于星链低轨卫星组网批次,部署在近地轨道,承担提供全球覆盖、低延迟宽带互联网服务的任务,补充完善星链星座的通信覆盖能力,助力星链完成大规模组网部署,支撑商用、特种等多场景互联网接入需求。

Basic Information
目录编号:
57788
目录名称:
STARLINK-30387
国际标识:
2023-134T
轨道中心:
EARTH
卫星名称:
星链-30387
卫星全名:
星链-30387 (STARLINK-30387 )
卫星状态:
在轨 (已飞行1096 天)
发射日期:
2023-09-04 UTC
国别 :
美国 (US)
星等 :
--
Orbit Information
数据来源 国际轨道数据 AOE轨道数据
星历时间 2026-09-04T08:30:26+0800
12小时前
查看轨道信息
2026-08-31T08:00:00+0800
4天前
查看轨道信息
半长轴 6861.186km 6861.193km
偏心率 0.0001641 0.0001759
轨道倾角 43.004° 43.002°
近地点辐角 273.538° 265.397°
升交点赤经 255.979° 278.691°
平近点角 86.528° 275.361°
近地点 481.923km 481.849km
远地点 484.175km 484.263km
周期 94.267分钟 94.267分钟
每日圈数 15.275801 15.275778
Detailed Information
固有亮度:
5
最大亮度:
0.3
卫星平台:
Starlink v2.0 mini
覆盖范围:
全球
运营商:
太空探索技术公司
运营商所在国:
美国
制造商(研发单位):
太空探索技术公司
制造商所在国:
美国
使用方式:
暂无
Satellite Introduction
星链(Starlink)计划是由太空探索技术公司(SpaceX)提出的一个巨型低轨卫星互联网星座项目,计划在2019年至2024年间在太空搭建由约1.2万颗卫星组成的“星链”网络,其中1584颗将部署在地球上空550千米处的近地轨道,并从2020年开始工作。该卫星仍在工作。
2D Orbit Map
3D Orbit Map
Orbit Altitude Analysis Chart
Orbit Inclination Analysis Chart
Orbit Comprehensive Analysis Chart
View Comprehensive Chart
Conjunction Data List
Event ID Objects TCA Miss Dist (km) Collision Risk Probability Collision Risk Index (CRI) Action
CDM_260904-175105-778806-332521
2026-09-04T
17:51:05+0000
1.046 km
极远距离
1.775569E-5 中风险 0.6
CDM_260904-161605-778806-332521
2026-09-04T
16:16:56+0000
1.085 km
极远距离
1.562449E-5 中风险 0.59
CDM_260905-084505-778806-332521
2026-09-05T
08:45:32+0000
1.687 km
极远距离
3.591914E-6 低风险 0.46